Station 44011 (LLNR 825) - GEORGES BANK 170 NM East of Hyannis, MA Image indicating link to RSS feed of recent meteorological observations for station 44011


Conditions at 44011 as of
(10:00 pm ADT on 05/20/2024)
0100 GMT on 05/21/2024:
     

Click on the graph icon in the table below to see a time series plot of the last five days of that observation.

5-day plot - Wind Direction Wind Direction (WDIR): NE ( 40 deg true )
5-day plot - Wind Speed Wind Speed (WSPD):7.0 m/s
5-day plot - Wind Gust Wind Gust (GST):9.0 m/s
5-day plot - Atmospheric Pressure Atmospheric Pressure (PRES):1015.7 mb
5-day plot - Pressure Tendency Pressure Tendency (PTDY): +0.5 mb ( Rising )
5-day plot - Air Temperature Air Temperature (ATMP): 7.9 °C
5-day plot - Water Temperature Water Temperature (WTMP): 6.5 °C
5-day plot - Wind Chill Wind Chill (CHILL): 4.2 °C
5-day plot - Wind Speed at 10 Meters Wind Speed at 10 meters (WSPD10M): 7 m/s
5-day plot - Wind Speed at 20 Meters Wind Speed at 20 meters (WSPD20M): 8 m/s
5-day plot -  Wind Speed, Wind Gust and Atmospheric Pressure Combined plot of Wind Speed, Gust, and Air Pressure
Supplemental Measurements
Highest 1-minute Wind Speed
Time (ADT)5-day plot - 1-Minute Wind Speed WSPD 5-day plot - 1-Minute Wind Direction WDIR
9:56 pm 7 m/s-
Previous observations
TIME
(ADT)
5-day plot - Wind Direction
WDIR
 
5-day plot - Wind Speed
WSPD
m/s
5-day plot - Wind Gust
GST
m/s
5-day plot - Wave Height
WVHT
m
5-day plot - Dominant Wave Period
DPD
sec
5-day plot - Average Wave Period
APD
sec
5-day plot - Mean Wave Direction
MWD
 
5-day plot - Atmospheric Pressure
PRES
mb
5-day plot - Pressure Tendency
PTDY
mb
5-day plot - Air Temperature
ATMP
°C
5-day plot - Water Temperature
WTMP
°C
5-day plot - Dew Point
DEWP
°C
5-day plot - Salinity
SAL
psu
5-day plot - Visibility
VIS
km
5-day plot - Tide (above MLLW)
TIDE
m
2024-05-20 09:50 pm NE 7.0 9.0 1.8 106.0 N1015.4- 7.9 6.6----
2024-05-20 09:40 pmNNE 8.0 9.0----1015.4- 7.9 6.5----
2024-05-20 09:30 pmNNE 7.0 10.0----1015.5- 7.9 6.6----
2024-05-20 09:20 pmNNE 8.0 10.0 1.9 86.0 N1015.4- 7.9 6.6----
2024-05-20 09:10 pmNNE 7.0 9.0 1.9-6.0 N1015.4- 7.7 6.6----
2024-05-20 09:00 pmNNE 7.0 9.0----1015.4 +0.7 7.5 6.6----
2024-05-20 08:50 pm N 7.0 9.0 2.0 96.2 N1015.4- 7.5 6.6----
2024-05-20 08:40 pm N 7.0 9.0----1015.4- 7.5 6.7----
2024-05-20 08:10 pmNNE 7.0 8.0 1.7-5.9NNE1015.0- 7.6 6.6----
2024-05-20 08:00 pmNNE 6.0 8.0----1014.9 +0.3 7.6 6.8----
2024-05-20 07:50 pmNNE 6.0 7.0 2.0 96.2NNE1015.0- 7.7 6.9----
2024-05-20 07:40 pmNNE 6.0 7.0----1015.0- 7.7 7.0----
2024-05-20 07:30 pmNNE 6.0 7.0----1015.1- 7.7 7.0----
2024-05-20 07:20 pmNNE 6.0 8.0 1.7 95.8NNE1015.1- 7.7 7.1----
2024-05-20 07:10 pmNNE 7.0 8.0 1.7-5.8NNE1015.2- 7.8 7.1----
2024-05-20 07:00 pm N 7.0 8.0----1015.1 +0.5 7.8 7.2----
2024-05-20 06:50 pmNNE 7.0 9.0 1.7 105.6 N1014.8- 7.9 7.3----
2024-05-20 06:40 pmNNE 7.0 9.0----1014.5- 7.9 7.3----
2024-05-20 06:30 pmNNE 7.0 9.0----1014.6- 7.9 7.4----
2024-05-20 06:20 pmNNE 7.0 8.0 2.0 95.9NNE1014.8- 7.9 7.2----
2024-05-20 06:10 pmNNE 7.0 8.0 2.0-5.9NNE1014.8- 7.9 7.2----
2024-05-20 06:00 pmNNE 7.0 8.0----1014.7 -0.7 7.9 6.8----
2024-05-20 05:50 pmNNE 7.0 8.0 2.0 96.0NNE1014.7- 7.9 6.9----
2024-05-20 05:40 pmNNE 7.0 8.0----1014.8- 7.9 7.0----
2024-05-20 05:30 pmNNE 7.0 8.0----1014.6- 8.0 7.0----
2024-05-20 05:20 pmNNE 7.0 8.0 2.0 95.8NNE1014.5- 8.0 7.0----
2024-05-20 05:10 pm NE 6.0 8.0 2.0-5.8NNE1014.5- 8.0 7.0----
2024-05-20 05:00 pmNNE 7.0 9.0----1014.5 -0.9 8.1 7.2 8.1---
2024-05-20 04:50 pmNNE 7.0 8.0 2.0 95.9 N1014.6- 8.1 7.1 8.1---
2024-05-20 04:40 pmNNE 6.0 7.0----1014.6- 8.2 7.1 8.2---
2024-05-20 04:30 pmNNE 6.0 8.0----1014.7- 8.5 7.1 8.5---
2024-05-20 04:20 pm NE 6.0 7.0 2.1 85.8 N1014.6- 8.5 7.1 8.5---
2024-05-20 04:10 pm NE 6.0 7.0 2.1-5.8 N1014.6- 8.5 7.0 8.5---
2024-05-20 04:00 pm NE 7.0 8.0----1014.5 -1.3 8.4 7.1 8.4---
2024-05-20 03:50 pm NE 7.0 9.0 2.1 95.9NNW1014.5- 8.4 7.0 8.4---
2024-05-20 03:40 pm NE 7.0 9.0----1014.7- 8.3 6.9 8.3---
2024-05-20 03:30 pm NE 8.0 10.0----1014.9- 8.2 6.9 8.2---
2024-05-20 03:20 pm NE 7.0 9.0 2.1 85.8 NW1015.0- 8.0 6.9----
2024-05-20 03:10 pmNNE 7.0 8.0 2.1-5.8 NW1015.2- 7.8 6.8----
2024-05-20 03:00 pmNNE 7.0 9.0----1015.3 +0.0 7.7 6.8----
2024-05-20 02:50 pmNNE 8.0 9.0 2.0 95.7NNW1015.3- 7.7 6.7----
2024-05-20 02:40 pmNNE 8.0 10.0----1015.4- 7.7 6.8----
2024-05-20 02:30 pmNNE 9.0 10.0----1015.4- 7.7 6.8----
2024-05-20 02:20 pmNNE 9.0 10.0 1.8 95.5 N1015.3- 7.7 6.6----
2024-05-20 02:10 pmNNE 8.0 10.0 1.8-5.5 N1015.4- 7.6 6.6----
2024-05-20 02:00 pmNNE 9.0 10.0----1015.5 +0.5 7.6 6.6----
2024-05-20 01:50 pmNNE 9.0 11.0 2.0 85.6NNW1015.4- 7.6 6.6----
2024-05-20 01:40 pmNNE 8.0 10.0----1015.7- 7.6 6.6----
2024-05-20 01:30 pmNNE 8.0 10.0----1015.9- 7.6 6.6----
2024-05-20 01:20 pmNNE 8.0 10.0 1.9 95.6NNW1015.9- 7.6 6.6----
2024-05-20 01:10 pmNNE 8.0 10.0----1016.0- 7.6 6.5----
2024-05-20 01:00 pmNNE 9.0 12.0----1015.9 +1.0 7.6 6.5----
2024-05-20 12:50 pmNNE 9.0 11.0 1.9 85.6NNW1015.6- 7.6 6.5----
2024-05-20 12:40 pmNNE 9.0 11.0----1015.6- 7.6 6.4----
2024-05-20 12:30 pmNNE 9.0 11.0----1015.6- 7.6 6.4----
2024-05-20 12:20 pmNNE 9.0 11.0 1.8 85.4 N1015.6- 7.6 6.5----
2024-05-20 12:10 pmNNE 9.0 11.0----1015.4- 7.6 6.4----
2024-05-20 12:00 pmNNE 8.0 10.0----1015.5 +0.9 7.6 6.3----
2024-05-20 11:50 amNNE 8.0 10.0 1.8 85.5 N1015.3- 7.6 6.4----
2024-05-20 11:40 amNNE 8.0 10.0----1015.3- 7.6 6.4----
2024-05-20 11:30 amNNE 8.0 9.0----1015.2- 7.6 6.4----
2024-05-20 11:20 amNNE 8.0 9.0 1.8 85.5 N1015.1- 7.7 6.4----
2024-05-20 11:10 amNNE 8.0 9.0 1.8-5.5 N1015.1- 7.7 6.4----
2024-05-20 11:00 amNNE 8.0 9.0----1015.1 +0.6 7.7 6.4----
2024-05-20 10:50 amNNE 7.0 8.0 1.7 85.5NNE1015.1- 7.7 6.4----
2024-05-20 10:40 amNNE 7.0 9.0 1.7-5.5NNE1015.1- 7.6 6.5----
2024-05-20 10:30 amNNE 7.0 9.0----1015.1- 7.6 6.6----
2024-05-20 10:20 amNNE 7.0 9.0 1.7 85.4NNE1015.1- 7.6 6.7----
2024-05-20 10:10 amNNE 7.0 9.0 1.7-5.4NNE1015.0- 7.6 6.8----
2024-05-20 10:00 amNNE 7.0 9.0----1014.9 +1.1 7.6 6.9----
2024-05-20 09:50 amNNE 7.0 9.0 1.6 85.2 NE1014.9- 7.6 6.9----
2024-05-20 09:40 amNNE 7.0 9.0 1.6-5.2 NE1014.8- 7.6 6.9----
2024-05-20 09:30 amNNE 7.0 9.0----1014.8- 7.6 6.9----
2024-05-20 09:20 amNNE 7.0 9.0 1.7 85.4 NE1014.8- 7.6 6.9----
2024-05-20 09:10 amNNE 7.0 9.0----1014.7- 7.6 7.0----
2024-05-20 09:00 amNNE 7.0 8.0----1014.7 +1.9 7.7 7.0----
2024-05-20 08:50 amNNE 7.0 8.0 1.7 85.3 NE1014.6- 7.6 7.0----
2024-05-20 08:40 amNNE 6.0 8.0----1014.6- 7.6 7.0----
2024-05-20 08:30 amNNE 6.0 7.0----1014.5- 7.7 6.9----
2024-05-20 08:20 amNNE 7.0 9.0 1.6 85.1 NE1014.6- 7.8 6.9----
2024-05-20 08:10 amNNE 7.0 9.0 1.6-5.1 NE1014.6- 7.8 6.9----
2024-05-20 08:00 amNNE 8.0 9.0----1014.4 +1.2 7.7 6.8----
2024-05-20 07:50 amNNE 8.0 10.0 1.6 85.2 NE1014.3- 7.7 6.8----
2024-05-20 07:40 amNNE 8.0 9.0----1014.2- 7.6 6.7----
2024-05-20 07:30 amNNE 8.0 10.0----1014.0- 7.6 6.7----
2024-05-20 07:20 amNNE 8.0 10.0 1.6 85.2 NE1014.0- 7.6 6.8----
2024-05-20 07:10 am NE 8.0 10.0 1.6-5.2 NE1013.8- 7.6 6.8----
2024-05-20 07:00 amNNE 8.0 10.0----1013.8 +0.7 7.6 6.8----
2024-05-20 06:50 amNNE 8.0 10.0 1.7 85.3 NE1013.8- 7.6 6.8----
2024-05-20 06:40 amNNE 8.0 10.0----1013.5- 7.7 6.8----
2024-05-20 06:30 amNNE 8.0 10.0----1013.3- 7.7 6.8----
2024-05-20 06:20 am NE 8.0 9.0 1.8 85.3 NE1013.2- 7.7 6.9----
2024-05-20 06:10 am NE 8.0 9.0 1.8-5.3 NE1013.1- 7.7 7.2----
2024-05-20 06:00 am NE 7.0 9.0----1012.9 -0.8 7.7 7.1----
2024-05-20 05:50 am NE 7.0 9.0 1.8 85.1NNE1012.9- 7.7 7.6----
2024-05-20 05:40 am NE 7.0 9.0----1013.0- 7.7 7.6----
2024-05-20 05:30 amNNE 8.0 9.0----1012.9- 7.7 7.4----
2024-05-20 05:20 am NE 8.0 10.0 1.9 85.4NNE1012.9- 7.8 7.6----
2024-05-20 05:10 amNNE 8.0 9.0 1.9-5.4NNE1013.0- 7.8 7.5----
2024-05-20 05:00 amNNE 8.0 10.0----1013.2 -0.7 7.8 7.2----
2024-05-20 04:50 amNNE 8.0 10.0 1.8 85.3 N1013.3- 7.8 7.0----
2024-05-20 04:40 amNNE 8.0 10.0----1013.4- 7.8 7.0----
2024-05-20 04:30 amNNE 8.0 10.0----1013.4- 7.8 7.1----
2024-05-20 04:20 amNNE 8.0 10.0 1.8 85.4 N1013.5- 7.8 7.1----
2024-05-20 04:10 amNNE 8.0 9.0 1.8-5.4 N1013.4- 7.8 7.0----
2024-05-20 04:00 amNNE 8.0 9.0----1013.3 -0.5 7.9 7.1----
2024-05-20 03:50 amNNE 8.0 10.0 1.7 85.2NNW1013.3- 7.9 7.1----
2024-05-20 03:40 amNNE 7.0 9.0----1013.2- 7.9 7.1----
2024-05-20 03:30 amNNE 7.0 9.0----1013.4- 7.9 7.0----
2024-05-20 03:20 am NE 8.0 9.0 1.9 85.4NNW1013.4- 7.8 7.0----
2024-05-20 03:10 am NE 8.0 9.0 1.9-5.4NNW1013.4- 7.8 6.9----
2024-05-20 03:00 am NE 8.0 10.0----1013.5 -0.4 7.8 7.0----
2024-05-20 02:50 amNNE 8.0 10.0 1.8 85.3NNW1013.6- 7.8 7.0----
2024-05-20 02:40 amNNE 8.0 10.0----1013.7- 7.8 7.0----
2024-05-20 02:30 amNNE 8.0 9.0----1013.8- 7.8 7.0----
2024-05-20 02:20 amNNE 8.0 10.0 1.9 85.4NNW1013.9- 7.8 7.0----
2024-05-20 02:10 amNNE 8.0 10.0 1.9-5.4NNW1014.0- 7.9 7.0----
2024-05-20 02:00 amNNE 9.0 10.0----1014.0 +0.0 7.9 7.0----
2024-05-20 01:50 amNNE 9.0 11.0 1.8 85.3NNW1013.9- 7.9 7.0----
2024-05-20 01:40 amNNE 9.0 10.0----1013.8- 7.9 6.9----
2024-05-20 01:30 amNNE 9.0 10.0----1013.9- 7.9 6.9----
2024-05-20 01:20 amNNE 9.0 11.0 1.7 85.2 N1013.7- 7.9 6.9----
2024-05-20 01:10 amNNE 9.0 10.0 1.7-5.2 N1013.7- 8.0 7.0----
2024-05-20 01:00 amNNE 8.0 10.0----1013.8 +0.0 7.9 7.0----
2024-05-20 12:50 amNNE 8.0 10.0 1.8 75.5NNW1013.9- 7.9 7.0----
2024-05-20 12:40 amNNE 9.0 10.0----1013.9- 7.9 7.1----
2024-05-20 12:30 amNNE 8.0 9.0----1013.9- 7.9 7.1----
2024-05-20 12:20 amNNE 8.0 9.0 1.8 85.2 N1013.9- 8.0 7.0----
2024-05-20 12:10 amNNE 7.0 9.0 1.8-5.2 N1013.9- 8.1 7.0----
2024-05-20 12:00 amNNE 8.0 9.0----1013.9 +1.1 8.2 7.1----
2024-05-19 11:50 pmNNE 8.0 9.0 1.9 75.5NNE1013.9- 8.2 7.2----
2024-05-19 11:40 pmNNE 8.0 9.0----1013.8- 8.3 7.2----
2024-05-19 11:30 pmNNE 8.0 9.0----1014.0- 8.3 7.2----
2024-05-19 11:20 pmNNE 8.0 9.0 1.7 85.2NNE1013.9- 8.3 7.3----
2024-05-19 11:10 pmNNE 7.0 9.0 1.7-5.2NNE1013.9- 8.4 7.2----
2024-05-19 11:00 pmNNE 7.0 8.0----1014.0 +1.2 8.4 7.2----
2024-05-19 10:50 pmNNE 7.0 8.0 1.7 85.2 NE1013.9- 8.4 7.3----
2024-05-19 10:40 pm NE 7.0 9.0 1.7-5.2 NE1013.9- 8.4 7.3----
2024-05-19 10:30 pm NE 7.0 9.0----1013.8- 8.4 7.3----
2024-05-19 10:20 pm NE 7.0 9.0 1.6 85.2 NE1013.7- 8.4 7.3----
2024-05-19 10:10 pm NE 7.0 9.0 1.6-5.2 NE1013.6- 8.4 7.3----
2024-05-19 10:00 pm NE 7.0 9.0----1013.4 +1.1 8.4 7.4----
2024-05-19 09:50 pm NE 6.0 8.0 1.7 85.2 NE1013.4- 8.4 7.4----

Detailed Wave Summary
for 44011 as of
(9:40 pm ADT on 05/20/2024)
0040 GMT on 05/21/2024:

These wave data are displayed in rounded times.

     

Click on the graph icon in the table below to see a time series plot of the last five days of that observation.

5-day plot - Significant Wave Height Significant Wave Height (WVHT): 1.8 m
5-day plot - Swell Height Swell Height (SwH): 1.3 m
5-day plot - Swell Period Swell Period (SwP): 10.0 sec
5-day plot - Swell Direction Swell Direction (SwD): N
5-day plot - Wind Wave Height Wind Wave Height (WWH): 1.2 m
5-day plot - Wind Wave Period Wind Wave Period (WWP): 5.3 sec
5-day plot - Wind Wave Direction Wind Wave Direction (WWD):NNE
5-day plot - Wave Steepness Wave Steepness (STEEPNESS): SWELL
5-day plot - Average Wave Period Average Wave Period (APD): 6.0 sec
Previous observations
TIME
(ADT)
5-day plot - Wave Height
WVHT
m
5-day plot - Swell Height
SwH
m
5-day plot - Swell Period
SwP
sec
5-day plot - Swell Direction
SwD
 
5-day plot - Wind Wave Height
WWH
m
5-day plot - Wind Wave Period
WWP
sec
5-day plot - Wind Wave Direction
WWD
 
5-day plot - Wave Steepness
STEEPNESS
 
5-day plot - Average Wave Period
APD
sec
2024-05-20 09:10 pm 1.9 1.5 8.3 N 1.2 6.7 N AVERAGE 6.0
2024-05-20 08:40 pm 2.0 1.6 9.1 N 1.2 6.2 NNE AVERAGE 6.2
2024-05-20 08:10 pm 1.7 1.4 9.1NNE 0.9 5.0 NNE AVERAGE 5.9
2024-05-20 07:40 pm 2.0 1.7 9.1NNE 1.0 5.3 NE AVERAGE 6.2
2024-05-20 07:10 pm 1.7 1.3 9.1NNE 1.1 6.2 NNE AVERAGE 5.8
2024-05-20 06:40 pm 1.7 1.2 10.0 N 1.2 6.2 NNE SWELL 5.6
2024-05-20 06:10 pm 2.0 1.5 9.1NNE 1.3 6.7 NE AVERAGE 5.9
2024-05-20 05:40 pm 2.0 1.6 9.1NNE 1.2 5.6 NNE AVERAGE 6.0
2024-05-20 05:10 pm 2.0 1.6 9.1NNE 1.1 5.6 NNE AVERAGE 5.8
2024-05-20 04:40 pm 2.0 1.8 9.1 N 0.9 5.0 NNE AVERAGE 5.9
2024-05-20 04:10 pm 2.1 1.8 8.3 N 1.0 5.0 NNE AVERAGE 5.8
2024-05-20 03:40 pm 2.1 1.7 9.1NNW 1.3 6.2 NNE AVERAGE 5.9
2024-05-20 03:10 pm 2.1 1.7 8.3 NW 1.3 6.2 N AVERAGE 5.8
2024-05-20 02:40 pm 2.0 1.4 9.1NNW 1.4 6.2 NNW AVERAGE 5.7
2024-05-20 02:10 pm 1.8 1.3 9.1 N 1.3 5.9 N AVERAGE 5.5
2024-05-20 01:40 pm 2.0 1.5 8.3NNW 1.3 5.9 NNW AVERAGE 5.6
2024-05-20 01:10 pm 1.9 1.4 9.1NNW 1.3 4.5 N AVERAGE 5.6
2024-05-20 12:40 pm 1.9 1.4 8.3NNW 1.3 5.3 N AVERAGE 5.6
2024-05-20 12:10 pm 1.8 1.3 8.3 N 1.2 5.9 N AVERAGE 5.4
2024-05-20 11:40 am 1.8 1.2 8.3 N 1.3 7.1 N AVERAGE 5.5
2024-05-20 11:10 am 1.8 1.4 8.3 N 1.1 5.9 NNE AVERAGE 5.5
2024-05-20 10:40 am 1.7 1.3 7.7NNE 1.1 6.2 NNE STEEP 5.5
2024-05-20 10:10 am 1.7 1.3 8.3NNE 1.2 6.2 NNE AVERAGE 5.4
2024-05-20 09:40 am 1.6 1.1 7.7 NE 1.2 4.8 NE AVERAGE 5.2
2024-05-20 09:10 am 1.7 1.1 8.3 NE 1.2 5.0 NE AVERAGE 5.4
2024-05-20 08:40 am 1.7 1.3 8.3 NE 1.0 5.0 NE AVERAGE 5.3
2024-05-20 08:10 am 1.6 1.0 8.3 NE 1.2 5.9 NE AVERAGE 5.1
2024-05-20 07:40 am 1.6 0.9 8.3 NE 1.3 6.2 NE AVERAGE 5.2
2024-05-20 07:10 am 1.6 1.2 8.3 NE 1.1 5.6 NE AVERAGE 5.2
2024-05-20 06:40 am 1.7 0.7 14.8 N 1.5 7.7 NE AVERAGE 5.3
2024-05-20 06:10 am 1.8 1.1 7.7 NE 1.4 5.0 ENE STEEP 5.3
2024-05-20 05:40 am 1.8 1.2 8.3NNE 1.3 5.9 NE AVERAGE 5.1
2024-05-20 05:10 am 1.9 1.0 7.7NNE 1.6 6.7 NNE STEEP 5.4
2024-05-20 04:40 am 1.8 1.3 7.7 N 1.3 6.2 NNE STEEP 5.3
2024-05-20 04:10 am 1.8 1.0 7.7 N 1.5 5.0 NNE STEEP 5.4
2024-05-20 03:40 am 1.7 1.1 7.7NNW 1.3 6.7 N STEEP 5.2
2024-05-20 03:10 am 1.9 1.2 8.3NNW 1.6 7.1 N AVERAGE 5.4
2024-05-20 02:40 am 1.8 1.3 7.7NNW 1.3 4.2 NNE STEEP 5.3
2024-05-20 02:10 am 1.9 0.9 8.3NNW 1.6 5.6 N AVERAGE 5.4
2024-05-20 01:40 am 1.8 1.1 8.3NNW 1.4 6.2- AVERAGE 5.3
2024-05-20 01:10 am 1.7 1.2 7.7 N 1.3 5.6 NNE STEEP 5.2
2024-05-20 12:40 am 1.8 1.1 8.3 N 1.4 7.1 NNW STEEP 5.5
2024-05-20 12:10 am 1.8 1.3 8.3 N 1.3 5.9 NNE AVERAGE 5.2
2024-05-19 11:40 pm 1.9 1.2 11.4 NE 1.5 7.1 NNE STEEP 5.5
2024-05-19 11:10 pm 1.7 1.2 7.7NNE 1.3 5.6 NE STEEP 5.2
2024-05-19 10:40 pm 1.7 1.1 7.7 NE 1.3 5.3 NE STEEP 5.2
2024-05-19 10:10 pm 1.6 1.1 8.3 NE 1.2 5.0 NE AVERAGE 5.2

Plot of wave energy versus frequency (and period)